Weather History for Newport News, VA

Change the Weather History Date:

Thursday, January 26, 2012

  Actual Average Record
Temperature  
Mean Temperature 50 °F -  
Max Temperature 64 °F 52 °F 74 °F (1950)
Min Temperature 35 °F 35 °F 17 °F (1961)
Degree Days  
Heating Degree Days 16    
Moisture  
Dew Point 44 °F    
Average Humidity 87    
Maximum Humidity 100    
Minimum Humidity 63    
Precipitation  
Precipitation 0.00 in - - ()
Sea Level Pressure  
Sea Level Pressure 30.08 in    
Wind  
Wind Speed 3 mph (South)    
Max Wind Speed 12 mph    
Max Gust Speed -    
Visibility 7 miles    
Events      
Averages and records for this station are not official NWS values.
T = Trace of Precipitation, MM = Missing Value Source: NWS Daily Summary

Daily Weather History Graph

Daily Weather History Graph

Search for Another Location

Airport:

Trip Planner

Search our weather history database for the weather conditions in past years. The results will help you decide how hot, cold, wet, or windy it might be!

Date:

Astronomy

Jan. 26, 2012 Rise Set
Actual Time 7:13 AM EST 5:23 PM EST
Civil Twilight 6:45 AM EST 5:51 PM EST
Nautical Twilight 6:14 AM EST 6:22 PM EST
Astronomical Twilight 5:43 AM EST 6:53 PM EST
Moon 8:46 AM EST (1/26) 9:07 PM EST (1/26)
Length of Visible Light 11h 05m
Length of Day
10h 10m
Waxing Crescent, 12% of the Moon is Illuminated
Jan 26
Waxing Crescent
Jan 30
First Quarter
Feb 7
Full
Feb 14
Last Quarter
Feb 21
New

Hourly Weather History & Observations

Time (EST) Temp. Windchill Dew Point Humidity Pressure Visibility Wind Dir Wind Speed Gust Speed Precip Events Conditions
12:54 AM 37.0 °F 34.5 °F 36.0 °F 96% 30.22 in 4.0 mi North 3.5 mph - N/A   Clear
1:28 AM 37.4 °F - 35.6 °F 93% 30.21 in 2.0 mi Calm Calm - N/A   Clear
1:52 AM 35.6 °F - 35.6 °F 100% 30.21 in 3.0 mi Calm Calm - N/A   Clear
1:54 AM 36.0 °F - 35.1 °F 97% 30.21 in 3.0 mi Calm Calm - N/A   Clear
2:34 AM 35.6 °F - 35.6 °F 100% 30.20 in 0.8 mi Calm Calm - N/A   Partly Cloudy
2:51 AM 35.6 °F - 33.8 °F 93% 30.19 in 2.0 mi Calm Calm - N/A   Partly Cloudy
2:54 AM 35.1 °F - 34.0 °F 96% 30.19 in 2.5 mi Calm Calm - N/A   Partly Cloudy
3:19 AM 35.6 °F - 35.6 °F 100% 30.19 in 3.0 mi Calm Calm - N/A   Clear
3:28 AM 35.6 °F - 35.6 °F 100% 30.19 in 2.0 mi Calm Calm - N/A   Clear
3:54 AM 36.0 °F - 35.1 °F 97% 30.18 in 3.0 mi Calm Calm - N/A   Clear
4:54 AM 37.9 °F - 37.0 °F 97% 30.17 in 4.0 mi Calm Calm - 0.00 in   Overcast
5:54 AM 41.0 °F - 39.9 °F 96% 30.16 in 7.0 mi Calm Calm - N/A   Overcast
6:54 AM 43.0 °F - 41.0 °F 93% 30.17 in 5.0 mi Calm Calm - N/A   Overcast
7:54 AM 41.0 °F 38.0 °F 39.9 °F 96% 30.15 in 7.0 mi ENE 4.6 mph - N/A   Scattered Clouds
8:16 AM 44.6 °F - 42.8 °F 93% 30.15 in 3.0 mi Calm Calm - N/A   Partly Cloudy
8:54 AM 48.9 °F - 45.0 °F 86% 30.15 in 5.0 mi Calm Calm - N/A   Clear
9:54 AM 53.1 °F - 48.0 °F 83% 30.14 in 8.0 mi South 3.5 mph - N/A   Clear
10:54 AM 57.0 °F - 50.0 °F 77% 30.13 in 10.0 mi SSW 8.1 mph - N/A   Mostly Cloudy
11:54 AM 60.1 °F - 48.9 °F 67% 30.07 in 10.0 mi South 8.1 mph - N/A   Scattered Clouds
12:54 PM 61.0 °F - 50.0 °F 67% 30.03 in 10.0 mi SSW 6.9 mph - N/A   Overcast
1:54 PM 64.0 °F - 51.1 °F 63% 30.00 in 10.0 mi South 10.4 mph - N/A   Overcast
2:54 PM 64.0 °F - 52.0 °F 65% 29.98 in 10.0 mi South 9.2 mph - N/A   Scattered Clouds
3:54 PM 61.0 °F - 51.1 °F 70% 29.96 in 10.0 mi SSW 9.2 mph - N/A   Mostly Cloudy
4:54 PM 60.1 °F - 52.0 °F 75% 29.96 in 10.0 mi South 8.1 mph - N/A   Mostly Cloudy
5:54 PM 57.9 °F - 51.1 °F 78% 29.94 in 10.0 mi South 4.6 mph - N/A   Scattered Clouds
6:54 PM 57.0 °F - 51.1 °F 81% 29.94 in 10.0 mi South 5.8 mph - N/A   Clear
7:54 PM 55.9 °F - 51.1 °F 84% 29.94 in 10.0 mi SW 4.6 mph - N/A   Partly Cloudy
8:54 PM 53.1 °F - 50.0 °F 89% 29.89 in 10.0 mi Calm Calm - N/A   Clear
9:54 PM 57.9 °F - 54.0 °F 87% 29.86 in 10.0 mi South 6.9 mph - N/A   Mostly Cloudy
10:54 PM 59.0 °F - 55.0 °F 87% 29.84 in 10.0 mi South 8.1 mph - N/A   Mostly Cloudy
11:54 PM 60.1 °F - 55.9 °F 86% 29.81 in 10.0 mi South 11.5 mph - N/A   Mostly Cloudy